星链-30232 (STARLINK-30232 )

导读

STARLINK-30232是美国太空探索技术公司星链星座的卫星,于2023年7月10日发射入轨,属于星链星座第二代组网卫星,主要为全球提供高速低延迟互联网宽带服务,尤其服务偏远地区、海洋航行等网络覆盖薄弱区域,其发射进一步推进了星链星座的全球组网进程。

基本信息
目录编号:
57303
目录名称:
STARLINK-30232
国际标识:
2023-096P
轨道中心:
EARTH
卫星名称:
星链-30232
卫星全名:
星链-30232 (STARLINK-30232 )
卫星状态:
已陨落 最后检测时间 2026-03-07
发射日期:
2023-07-10 UTC
国别 :
美国 (US)
星等 :
--
轨道信息
数据来源 国际轨道数据
星历时间: 2026-03-07T17:40:09+0800
轨道信息已过期103天
半长轴: 6566.051km
偏心率: 0.001153
轨道倾角: 42.963°
近地点辐角 36.959°
升交点赤经 149.131°
平近点角 323.210°
近地点: 180.343km
远地点: 195.485km
周期: 88.250分钟
每日圈数: 16.317229
详细信息
固有亮度:
5
最大亮度:
0.3
卫星平台:
Starlink v2.0 mini
覆盖范围:
全球
运营商:
太空探索技术公司
运营商所在国:
美国
制造商(研发单位):
太空探索技术公司
制造商所在国:
美国
使用方式:
暂无
卫星简介
星链(Starlink)计划是由太空探索技术公司(SpaceX)提出的一个巨型低轨卫星互联网星座项目,计划在2019年至2024年间在太空搭建由约1.2万颗卫星组成的“星链”网络,其中1584颗将部署在地球上空550千米处的近地轨道,并从2020年开始工作。该卫星仍在工作。